Location: Bonningues
(50.7927°N, 2.0150°E)
Time: 04:14:53
(UTC+00:00)

COSMOS 2428 - Pass Details

Date: 08 August 2020
Orbit: 844 x 859 km, 70.9° (Epoch: 18 September)

Event Time Altitude Azimuth Distance (km) Brightness Sun altitude
Rises 22:10:48 0° 331° (NNW) 3,432 7.5 -19.4°
Reaches altitude 10° 22:13:39 10° 344° (NNW) 2,496 6.3 -19.6°
Maximum altitude 22:18:30 27° 42° (NE) 1,580 4.3 -20.0°
Enters shadow 22:22:36 13° 95° (E) 2,275 4.7 -20.2°
